Regional Weather Roundup
Issued by NWS Cleveland, OH

Home | Current Version | Previous Version | Graphics & Text | Print | Product List | Glossary On
Versions: 1 2 3 4 5 6 7 8 9 10 11 12 13 14 15 16 17 18 19 20 21 22 23 24 25 26 27 28 29 30 31 32 33 34 35 36 37 38 39 40 41 42 43 44 45 46 47 48 49 50
000
ASUS41 KCLE 061910
RWRCLE
OHIO REGIONAL WEATHER ROUNDUP
NATIONAL WEATHER SERVICE CLEVELAND, OH
200 PM EST TUE DEC 06 2016

NOTE: "FAIR" INDICATES FEW OR NO CLOUDS BELOW 12,000 FEET WITH NO
SIGNIFICANT WEATHER AND/OR OBSTRUCTIONS TO VISIBILITY.

OHZ001>008-015>018-024>027-034-035-043-044-062000-
   NORTHWEST OHIO

CITY           SKY/WX    TMP DP  RH WIND       PRES   REMARKS
DEFIANCE       CLOUDY    37  32  82 CALM      29.70R HAZE
FINDLAY        LGT RAIN  37  33  85 NE8       29.64F FOG
TOLEDO EXPRESS RAIN      36  36 100 E10       29.66F FOG
TOLEDO EXEC    LGT RAIN  38  36  92 NE6       29.69F FOG
LIMA           CLOUDY    35  35 100 NE3       29.65F FOG
$$

OHZ009>014-019>023-028>033-038-089-062000-
   NORTHEAST OHIO

CITY           SKY/WX    TMP DP  RH WIND       PRES   REMARKS
CLE-HOPKINS    RAIN      39  35  86 E6        29.71F FOG
CLE-LAKEFRONT  RAIN      39  35  86 SE5       29.69F FOG
CUY CO. ARPT   RAIN      39  37  93 SE9       29.70F FOG
LORAIN-ELYRIA  RAIN      37  34  89 E7        29.67F FOG
ASHTABULA      LGT RAIN  37  34  89 SE7       29.73F FOG
AKRON-CANTON   RAIN      39  35  86 E12       29.66F VSB 3/4
WOOSTER        NOT AVBL
MANSFIELD      LGT RAIN  37  37 100 E8        29.63F FOG
YOUNGSTOWN     LGT RAIN  37  34  89 E12       29.69F FOG
$$

OHZ042-051>053-060>062-070>072-077>081-062000-
  SOUTHWEST OHIO

CITY           SKY/WX    TMP DP  RH WIND       PRES   REMARKS
CINC-COVINGTON CLOUDY    42  41  96 NW8       29.65F FOG
CINC-LUNKEN    LGT RAIN  43  41  93 CALM      29.67F
HAMILTON       CLOUDY    43  39  86 NW6       29.67F
DAYTON         NOT AVBL
WRIGHT-PAT AFB NOT AVBL
DAYTON GENERAL CLOUDY    41  39  93 NW3       29.63F FOG
WILMINGTON     NOT AVBL
$$

OHZ036-037-039>041-045>050-054>059-063>069-073>076-082>088-062000-
  CENTRAL AND SOUTHEAST OHIO

CITY           SKY/WX    TMP DP  RH WIND       PRES   REMARKS
COLUMBUS       LGT RAIN  42  42 100 SE5       29.63S FOG
OSU AIRPORT    LGT RAIN  42  42 100 SE3       29.63F FOG
BOLTON FIELD   LGT RAIN  41  41 100 CALM      29.64S
RICKENBACK AFB NOT AVBL
NEWARK         NOT AVBL
MARION         RAIN      39  37  92 SE7       29.64F FOG
LANCASTER      RAIN      44  43  96 SE3       29.64S FOG
ZANESVILLE     LGT RAIN  43  41  93 E6        29.64S FOG
NEW PHILLY     LGT RAIN  40  39  97 E6        29.66F FOG
$$



USA.gov is the U.S. government's official web portal to all federal, state and local government web resources and services.